Location: Zagreb
(45.8000°N, 16.0000°E)
Time: 00:31:16
(UTC+01:00)

Transit 2A Rocket - Pass Details

Date: 02 October 2020
Orbit: 586 x 916 km, 66.7° (Epoch: 28 October)

Event Time Altitude Azimuth Distance (km) Brightness Sun altitude
Rises 15:51:42 0° 179° (S) 3,496 8.9 25.4°
Reaches altitude 10° 15:54:26 10° 170° (S) 2,582 8.2 25.0°
Maximum altitude 15:59:40 31° 110° (ESE) 1,546 6.5 24.3°
Drops below altitude 10° 16:04:55 10° 50° (NE) 2,599 7.2 23.5°
Sets 16:07:40 0° 41° (NE) 3,522 7.9 23.1°
